Вернуться в каталог

SL-16 DEB

АктивенLEO
NORAD 22223·DEBRIS·🇷🇺 Russia

Запущен Nov 17, 1992 с Baikonur Cosmodrome

Loading…

Ближайшие Пролёты (ближайшие 24 часа)

TLE

СвежийSource: Space-Track

Эпоха: Sep 14, 2026, 09:10 UTC

1 22223U 92076E   26257.38228463  .00000048  00000-0  80709-4 0  9993
2 22223  71.0365 113.6437 0191450 102.4911  70.9567 13.76197275697484

Отслеживайте SL-16 DEB в реальном времени с AllMySat

Download on the App Store